NOAA NWS Hourly Roundups by Site

Regional Weather Roundup for Omaha, NE

To Select Another Site Choose from List

Select Site:  

000
ASUS43 KOAX 092310
RWRNE

WEATHER ROUNDUP FOR NEBRASKA
NATIONAL WEATHER SERVICE OMAHA NE
600 PM CDT THU JUL 09 2020

NOTES: SATELLITE DATA IS BEING USED TO AUGMENT CLOUD COVER ABOVE
       12000 FEET.
       "FAIR" INDICATES FEW OR NO CLOUDS BELOW 12,000 FEET WITH NO
       SIGNIFICANT WEATHER AND/OR OBSTRUCTIONS TO VISIBILITY.


NEZ001>004-019>022-054>056-100000-
NEBRASKA PANHANDLE

CITY           SKY/WX    TMP DP  RH WIND       PRES   REMARKS
SCOTTSBLUFF    CLOUDY    90  54  29 SE9       29.97S
ALLIANCE       SUNNY     89  53  29 SE14G23   29.98F
CHADRON        MOSUNNY   91  57  31 NE10      29.94S
GORDON         FAIR      86  56  35 E12G18    29.99S
KIMBALL        PTSUNNY   83  50  31 CALM      30.05R
SIDNEY         MOSUNNY   89  54  30 SE17G26   29.99F
$$

NEZ057>060-069>072-079>082-100000-
SOUTHWEST NEBRASKA

CITY           SKY/WX    TMP DP  RH WIND       PRES   REMARKS
NORTH PLATTE   SUNNY     87  62  43 E13       29.96S
IMPERIAL       SUNNY     89  59  36 MISG      29.95F
LEXINGTON      SUNNY     85  66  53 SE10      29.97S
MCCOOK         MOSUNNY   87  66  49 E13       29.94S
OGALLALA       SUNNY     90  55  30 S8        29.97S
$$

NEZ005>010-023>029-035>040-094-100000-
NORTH CENTRAL NEBRASKA

CITY           SKY/WX    TMP DP  RH WIND       PRES   REMARKS
VALENTINE      PTSUNNY   87  60  40 E10G20    29.97S
AINSWORTH      SUNNY     84  64  49 E7        29.98S
BROKEN BOW     SUNNY     83  65  54 SE7       29.99R
O`NEILL        SUNNY     84  59  43 NW3       29.97S
ORD            SUNNY     85  62  46 S8        29.95S
THEDFORD       PTSUNNY   87  60  39 E12G17    29.98S
$$

NEZ041-046>049-061>064-073>077-083>087-100000-
SOUTH CENTRAL NEBRASKA

CITY           SKY/WX    TMP DP  RH WIND       PRES   REMARKS
GRAND ISLAND   SUNNY     84  65  52 VRB3      29.97R
AURORA         SUNNY     83  68  59 CALM      29.96S
HASTINGS       SUNNY     83  66  56 SE7       29.97R
HEBRON         SUNNY     84  66  54 SE5       29.94S
HOLDREGE       SUNNY     83  66  56 SE9       29.96F
KEARNEY        SUNNY     83  65  54 E10       29.97S
YORK           SUNNY     82  66  57 CALM      29.95R
$$

NEZ011>018-030>034-042>045-100000-
NORTHEAST NEBRASKA

CITY           SKY/WX    TMP DP  RH WIND       PRES   REMARKS
NORFOLK        SUNNY     87  58  37 VRB5      29.92R
ALBION         SUNNY     84  65  54 E3        29.96R
BLAIR          SUNNY     83  63  50 NW8       29.91R
COLUMBUS       SUNNY     84  67  56 SW8       29.94R
FREMONT        SUNNY     85  68  55 NW5       29.92R
TEKAMAH        SUNNY     86  65  49 NW6       29.89R
WAYNE          SUNNY     85  63  47 N5        29.92R
$$

NEZ050>053-065>068-078-088>093-100000-
SOUTHEAST NEBRASKA

CITY           SKY/WX    TMP DP  RH WIND       PRES   REMARKS
LINCOLN        SUNNY     86  62  44 VRB3      29.93R
OMAHA EPPLEY   MOSUNNY   85  62  46 N10       29.89R
BEATRICE       SUNNY     83  63  49 NE7       29.93R
FALLS CITY     SUNNY     85  65  51 NW12      29.88R
NEBRASKA CITY  SUNNY     83  63  50 N9        29.90R
PLATTSMOUTH    SUNNY     85  63  48 NW10      29.90R
$$

NEZ044-045-051>053-067-100000-
OMAHA AREA

CITY           SKY/WX    TMP DP  RH WIND       PRES   REMARKS
OMAHA EPPLEY   MOSUNNY   85  62  46 N10       29.89R
BLAIR          SUNNY     83  63  50 NW8       29.91R
FREMONT        SUNNY     85  68  55 NW5       29.92R
MILLARD        SUNNY     86  60  40 W9        29.90R
OFFUTT AFB     SUNNY     87  62  43 N10       29.89R
PLATTSMOUTH    SUNNY     85  63  48 NW10      29.90R
WAHOO          FAIR      85  64  48 N6        29.92R
$$


 

View Past Reports for Omaha, NE.

Products Courtesy of NOAA-NWS
NWS Information Parsing Script by Ken True at Saratoga Weather - Script by SE Lincoln Weather.